When you browse on this site, cookies collect data to enhance your experience and personalize the content and advertising you see.
Visit our Privacy Policy to learn more. By continuing to use the site, you agree to this use of cookies and data.

Meteo pe oră la Northallerton

Astăzi, 4 Iulie, Sâmbătă

Timp Temperatura Precipitaţii Vânt Presiune Umiditate
00:00 +15°C° 0.4 mm 4 m/s 750 mmHg 96%
01:00 +15°C° 0.2 mm 4 m/s 749 mmHg 96%
02:00 +15°C° 0.2 mm 4 m/s 749 mmHg 96%
03:00 +16°C° 0.2 mm 3 m/s 749 mmHg 96%
04:00 +16°C° 0.7 mm 3 m/s 749 mmHg 96%
05:00 +16°C° 0.7 mm 3 m/s 749 mmHg 96%
06:00 +16°C° 0.7 mm 3 m/s 749 mmHg 96%
07:00 +16°C° 0.1 mm 3 m/s 749 mmHg 95%
08:00 +17°C° 0.1 mm 4 m/s 749 mmHg 95%
09:00 +17°C° 0.1 mm 4 m/s 749 mmHg 94%
10:00 +17°C° 0 mm 4 m/s 750 mmHg 93%
11:00 +16°C° 0 mm 5 m/s 750 mmHg 91%
12:00 +17°C° 0 mm 5 m/s 750 mmHg 90%
13:00 +17°C° 0 mm 5 m/s 750 mmHg 90%
14:00 +16°C° 0 mm 5 m/s 750 mmHg 90%
15:00 +16°C° 0 mm 5 m/s 750 mmHg 89%
16:00 +16°C° 0 mm 5 m/s 750 mmHg 90%
17:00 +16°C° 0 mm 5 m/s 750 mmHg 90%
18:00 +16°C° 0 mm 5 m/s 750 mmHg 91%
19:00 +16°C° 0.1 mm 5 m/s 749 mmHg 91%
20:00 +16°C° 0.1 mm 5 m/s 749 mmHg 92%
21:00 +15°C° 0.1 mm 5 m/s 749 mmHg 92%
22:00 +16°C° 0 mm 6 m/s 748 mmHg 91%
23:00 +16°C° 0 mm 7 m/s 747 mmHg 89%

Mâine, 5 Iulie, Duminică

Timp Temperatura Precipitaţii Vânt Presiune Umiditate
00:00 +17°C° 0 mm 8 m/s 747 mmHg 88%
01:00 +17°C° 0.1 mm 8 m/s 746 mmHg 88%
02:00 +16°C° 0.1 mm 9 m/s 745 mmHg 88%
03:00 +16°C° 0.1 mm 9 m/s 745 mmHg 89%
04:00 +16°C° 0.1 mm 10 m/s 745 mmHg 87%
05:00 +14°C° 0.1 mm 10 m/s 745 mmHg 85%
06:00 +14°C° 0.1 mm 10 m/s 745 mmHg 84%
07:00 +14°C° 0 mm 10 m/s 746 mmHg 79%
08:00 +14°C° 0 mm 10 m/s 746 mmHg 75%
09:00 +14°C° 0 mm 10 m/s 747 mmHg 70%
10:00 +14°C° 0.1 mm 10 m/s 747 mmHg 68%
11:00 +14°C° 0.1 mm 10 m/s 748 mmHg 66%
12:00 +14°C° 0.1 mm 10 m/s 748 mmHg 65%
13:00 +14°C° 0.2 mm 10 m/s 748 mmHg 66%
14:00 +14°C° 0.2 mm 11 m/s 748 mmHg 68%
15:00 +13°C° 0.2 mm 11 m/s 749 mmHg 70%
16:00 +13°C° 0.1 mm 10 m/s 749 mmHg 72%
17:00 +13°C° 0.1 mm 10 m/s 748 mmHg 73%
18:00 +12°C° 0.1 mm 9 m/s 748 mmHg 75%
19:00 +11°C° 0.1 mm 8 m/s 749 mmHg 77%
20:00 +11°C° 0.1 mm 7 m/s 749 mmHg 79%
21:00 +10°C° 0.1 mm 6 m/s 749 mmHg 81%
22:00 +10°C° 0.1 mm 6 m/s 749 mmHg 82%
23:00 +10°C° 0.1 mm 6 m/s 749 mmHg 83%

Poimâine, 6 Iulie, Luni

Timp Temperatura Precipitaţii Vânt Presiune Umiditate
00:00 +9°C° 0.1 mm 7 m/s 750 mmHg 85%
01:00 +9°C° 0 mm 7 m/s 750 mmHg 85%
02:00 +9°C° 0 mm 6 m/s 750 mmHg 85%
03:00 +9°C° 0 mm 6 m/s 751 mmHg 85%
04:00 +9°C° 0.1 mm 6 m/s 751 mmHg 86%
05:00 +10°C° 0.1 mm 6 m/s 752 mmHg 86%
06:00 +10°C° 0.1 mm 6 m/s 752 mmHg 86%
07:00 +11°C° 0.3 mm 6 m/s 753 mmHg 83%
08:00 +13°C° 0.3 mm 6 m/s 754 mmHg 80%
09:00 +14°C° 0.3 mm 6 m/s 755 mmHg 77%
10:00 +15°C° 0.1 mm 6 m/s 755 mmHg 73%
11:00 +16°C° 0.1 mm 5 m/s 756 mmHg 68%
12:00 +17°C° 0.1 mm 5 m/s 757 mmHg 64%
13:00 +18°C° 0.3 mm 4 m/s 758 mmHg 66%
14:00 +17°C° 0.3 mm 4 m/s 758 mmHg 68%
15:00 +17°C° 0.3 mm 3 m/s 759 mmHg 70%
16:00 +16°C° 0.2 mm 3 m/s 760 mmHg 73%
17:00 +16°C° 0.2 mm 2 m/s 760 mmHg 75%
18:00 +15°C° 0.2 mm 2 m/s 760 mmHg 78%
19:00 +14°C° 0 mm 2 m/s 761 mmHg 80%
20:00 +12°C° 0 mm 2 m/s 761 mmHg 82%
21:00 +10°C° 0 mm 2 m/s 762 mmHg 85%
22:00 +10°C° 0 mm 3 m/s 762 mmHg 86%
23:00 +9°C° 0 mm 3 m/s 762 mmHg 86%

7 Iulie, Marţi

Timp Temperatura Precipitaţii Vânt Presiune Umiditate
00:00 +8°C° 0 mm 3 m/s 762 mmHg 87%
01:00 +8°C° 0 mm 3 m/s 762 mmHg 88%
02:00 +7°C° 0 mm 3 m/s 762 mmHg 89%
03:00 +7°C° 0 mm 3 m/s 761 mmHg 91%
04:00 +7°C° 0 mm 4 m/s 761 mmHg 88%
05:00 +8°C° 0 mm 4 m/s 761 mmHg 86%
06:00 +10°C° 0 mm 4 m/s 762 mmHg 84%
07:00 +12°C° 0 mm 5 m/s 762 mmHg 79%
08:00 +13°C° 0 mm 5 m/s 762 mmHg 74%
09:00 +14°C° 0 mm 5 m/s 762 mmHg 69%
10:00 +15°C° 0.1 mm 5 m/s 762 mmHg 69%
11:00 +15°C° 0.1 mm 5 m/s 762 mmHg 68%
12:00 +15°C° 0.1 mm 5 m/s 761 mmHg 68%
13:00 +15°C° 0.1 mm 5 m/s 761 mmHg 68%
14:00 +15°C° 0.1 mm 5 m/s 761 mmHg 68%
15:00 +16°C° 0.1 mm 5 m/s 761 mmHg 68%
16:00 +15°C° 0 mm 5 m/s 761 mmHg 70%
17:00 +14°C° 0 mm 5 m/s 761 mmHg 72%
18:00 +14°C° 0 mm 5 m/s 761 mmHg 75%
19:00 +13°C° 0.1 mm 4 m/s 761 mmHg 79%
20:00 +12°C° 0.1 mm 4 m/s 761 mmHg 84%
21:00 +11°C° 0.1 mm 3 m/s 761 mmHg 88%
22:00 +11°C° 0 mm 3 m/s 760 mmHg 88%
23:00 +11°C° 0 mm 4 m/s 760 mmHg 88%

8 Iulie, Miercuri

Timp Temperatura Precipitaţii Vânt Presiune Umiditate
00:00 +11°C° 0 mm 4 m/s 759 mmHg 88%
01:00 +11°C° 0 mm 4 m/s 758 mmHg 88%
02:00 +10°C° 0 mm 5 m/s 758 mmHg 88%
03:00 +12°C° 0 mm 5 m/s 757 mmHg 88%
04:00 +12°C° 0 mm 5 m/s 756 mmHg 88%
05:00 +13°C° 0 mm 6 m/s 756 mmHg 88%
06:00 +14°C° 0 mm 6 m/s 755 mmHg 88%
07:00 +14°C° 0.3 mm 7 m/s 755 mmHg 89%
08:00 +15°C° 0.3 mm 7 m/s 754 mmHg 90%
09:00 +15°C° 0.3 mm 8 m/s 754 mmHg 91%
10:00 +16°C° 0.1 mm 8 m/s 754 mmHg 88%
11:00 +16°C° 0.1 mm 9 m/s 754 mmHg 85%
12:00 +17°C° 0.1 mm 10 m/s 754 mmHg 81%
13:00 +17°C° 0 mm 10 m/s 754 mmHg 77%
14:00 +17°C° 0 mm 10 m/s 754 mmHg 73%
15:00 +17°C° 0 mm 11 m/s 754 mmHg 68%
16:00 +16°C° 0 mm 10 m/s 754 mmHg 70%
17:00 +15°C° 0 mm 9 m/s 754 mmHg 71%
18:00 +13°C° 0 mm 8 m/s 754 mmHg 73%
19:00 +13°C° 0 mm 8 m/s 754 mmHg 73%
20:00 +12°C° 0 mm 7 m/s 755 mmHg 72%
21:00 +11°C° 0 mm 7 m/s 755 mmHg 72%
22:00 +11°C° 0 mm 7 m/s 756 mmHg 73%
23:00 +10°C° 0 mm 6 m/s 756 mmHg 74%

9 Iulie, Joi

Timp Temperatura Precipitaţii Vânt Presiune Umiditate
00:00 +9°C° 0 mm 6 m/s 757 mmHg 75%
01:00 +9°C° 0 mm 6 m/s 757 mmHg 78%
02:00 +8°C° 0 mm 5 m/s 758 mmHg 80%
03:00 +8°C° 0 mm 5 m/s 758 mmHg 82%
04:00 +8°C° 0 mm 4 m/s 759 mmHg 82%
05:00 +10°C° 0 mm 4 m/s 759 mmHg 81%
06:00 +10°C° 0 mm 4 m/s 760 mmHg 81%
07:00 +12°C° 0 mm 4 m/s 760 mmHg 75%
08:00 +13°C° 0 mm 3 m/s 760 mmHg 69%
09:00 +14°C° 0 mm 3 m/s 760 mmHg 63%
10:00 +16°C° 0 mm 3 m/s 761 mmHg 61%
11:00 +16°C° 0 mm 2 m/s 761 mmHg 58%
12:00 +17°C° 0 mm 2 m/s 761 mmHg 55%
13:00 +17°C° 0 mm 2 m/s 761 mmHg 57%
14:00 +17°C° 0 mm 2 m/s 761 mmHg 59%
15:00 +17°C° 0 mm 3 m/s 761 mmHg 60%
16:00 +17°C° 0 mm 3 m/s 761 mmHg 64%
17:00 +17°C° 0 mm 3 m/s 760 mmHg 67%
18:00 +16°C° 0 mm 3 m/s 760 mmHg 71%
19:00 +15°C° 0 mm 2 m/s 760 mmHg 76%
20:00 +13°C° 0 mm 2 m/s 760 mmHg 82%
21:00 +11°C° 0 mm 1 m/s 760 mmHg 87%
22:00 +11°C° 0 mm 1 m/s 760 mmHg 88%
23:00 +10°C° 0 mm 1 m/s 760 mmHg 89%
Arată mai mult